Change the Weather History Date:

Wednesday, February 20, 2013

  Actual Average Record
Temperature  
Mean Temperature 30 °F -  
Max Temperature 33 °F 50 °F 75 °F (2011)
Min Temperature 26 °F 35 °F 17 °F (2015)
Degree Days  
Heating Degree Days 36    
Moisture  
Dew Point 11 °F    
Average Humidity 44    
Maximum Humidity 51    
Minimum Humidity 40    
Precipitation  
Precipitation 0.00 in - - ()
Sea Level Pressure  
Sea Level Pressure 30.31 in    
Wind  
Wind Speed 7 mph (NE)    
Max Wind Speed 16 mph    
Max Gust Speed 18 mph    
Visibility 10 miles    
Events      
Averages and records for this station are not official NWS values.
T = Trace of Precipitation, MM = Missing Value Source: NWS Daily Summary

Daily Weather History Graph

Daily Weather History Graph

Search for Another Location

Airport or City:

Trip Planner

Search our weather history database for the weather conditions in past years. The results will help you decide how hot, cold, wet, or windy it might be!

Date:

Astronomy

Feb. 20, 2013 Rise Set
Actual Time 6:38 AM CST 5:44 PM CST
Civil Twilight 6:12 AM CST 6:10 PM CST
Nautical Twilight 5:42 AM CST 6:40 PM CST
Astronomical Twilight 5:13 AM CST 7:09 PM CST
Moon 1:11 PM CST (2/20) 2:53 AM CST (2/20)
Length of Visible Light 11h 57m
Length of Day
11h 05m
Waxing Gibbous, 76% of the Moon is Illuminated
Feb 20
Waxing Gibbous
Feb 25
Full
Mar 4
Last Quarter
Mar 11
New
Mar 19
First Quarter

Hourly Weather History & Observations

Time (CST) Temp. Windchill Dew Point Humidity Pressure Visibility Wind Dir Wind Speed Gust Speed Precip Events Conditions
12:15 AM 33.8 °F 27.0 °F 12.2 °F 41% 30.30 in 10.0 mi North 8.1 mph - N/A   Clear
12:35 AM 30.2 °F 22.6 °F 12.2 °F 47% 30.31 in 10.0 mi North 8.1 mph - N/A   Clear
12:55 AM 32.0 °F 25.6 °F 10.4 °F 41% 30.32 in 10.0 mi North 6.9 mph - N/A   Clear
1:15 AM 30.2 °F 24.3 °F 10.4 °F 44% 30.32 in 10.0 mi NNE 5.8 mph - N/A   Clear
1:35 AM 30.2 °F 22.6 °F 10.4 °F 44% 30.32 in 10.0 mi NNE 8.1 mph - N/A   Clear
1:55 AM 30.2 °F 21.9 °F 10.4 °F 44% 30.32 in 10.0 mi NNE 9.2 mph - N/A   Clear
2:15 AM 30.2 °F 21.9 °F 8.6 °F 40% 30.31 in 10.0 mi North 9.2 mph - N/A   Clear
2:35 AM 28.4 °F 20.4 °F 8.6 °F 43% 30.31 in 10.0 mi North 8.1 mph - N/A   Clear
2:55 AM 28.4 °F 22.2 °F 8.6 °F 43% 30.32 in 10.0 mi North 5.8 mph - N/A   Clear
3:15 AM 28.4 °F 23.3 °F 8.6 °F 43% 30.33 in 10.0 mi NNW 4.6 mph - N/A   Clear
3:35 AM 26.6 °F 20.0 °F 8.6 °F 47% 30.33 in 10.0 mi North 5.8 mph - N/A   Clear
3:55 AM 28.4 °F - 8.6 °F 43% 30.34 in 10.0 mi Calm Calm - N/A   Clear
4:15 AM 26.6 °F 22.6 °F 8.6 °F 47% 30.33 in 10.0 mi NE 3.5 mph - N/A   Clear
4:35 AM 26.6 °F 18.2 °F 8.6 °F 47% 30.33 in 10.0 mi NNE 8.1 mph - N/A   Clear
4:55 AM 28.4 °F 21.2 °F 6.8 °F 40% 30.32 in 10.0 mi North 6.9 mph - N/A   Clear
5:15 AM 26.6 °F 18.2 °F 6.8 °F 43% 30.31 in 10.0 mi NNE 8.1 mph - N/A   Clear
5:35 AM 26.6 °F 19.1 °F 8.6 °F 47% 30.31 in 10.0 mi NNE 6.9 mph - N/A   Clear
5:55 AM 26.6 °F 18.2 °F 8.6 °F 47% 30.32 in 10.0 mi NNE 8.1 mph - N/A   Clear
6:15 AM 26.6 °F 19.1 °F 8.6 °F 47% 30.33 in 10.0 mi NNE 6.9 mph - N/A   Clear
6:35 AM 26.6 °F 19.1 °F 8.6 °F 47% 30.33 in 10.0 mi NNE 6.9 mph - N/A   Clear
6:55 AM 26.6 °F 19.1 °F 8.6 °F 47% 30.35 in 10.0 mi NE 6.9 mph - N/A   Clear
7:35 AM 28.4 °F 21.2 °F 8.6 °F 43% 30.36 in 10.0 mi NNE 6.9 mph - N/A   Clear
7:55 AM 28.4 °F 21.2 °F 8.6 °F 43% 30.38 in 10.0 mi NNE 6.9 mph - N/A   Clear
8:15 AM 28.4 °F 21.2 °F 8.6 °F 43% 30.38 in 10.0 mi NNE 6.9 mph - N/A   Clear
8:35 AM 28.4 °F 22.2 °F 8.6 °F 43% 30.38 in 10.0 mi NE 5.8 mph - N/A   Clear
9:15 AM 28.4 °F 24.6 °F 10.4 °F 47% 30.41 in 10.0 mi North 3.5 mph - N/A   Clear
9:35 AM 28.4 °F 23.3 °F 8.6 °F 43% 30.40 in 10.0 mi NNE 4.6 mph - N/A   Clear
9:55 AM 28.4 °F 21.2 °F 8.6 °F 43% 30.38 in 10.0 mi NE 6.9 mph - N/A   Clear
10:15 AM 30.2 °F 21.3 °F 10.4 °F 44% 30.37 in 10.0 mi NNE 10.4 mph - N/A   Clear
10:35 AM 30.2 °F 23.4 °F 8.6 °F 40% 30.38 in 10.0 mi NE 6.9 mph - N/A   Clear
10:55 AM 30.2 °F 22.6 °F 10.4 °F 44% 30.38 in 10.0 mi NE 8.1 mph - N/A   Clear
11:15 AM 30.2 °F 21.3 °F 8.6 °F 40% 30.38 in 10.0 mi NNE 10.4 mph - N/A   Clear
11:35 AM 30.2 °F 23.4 °F 10.4 °F 44% 30.38 in 10.0 mi NE 6.9 mph - N/A   Partly Cloudy
11:55 AM 30.2 °F 24.3 °F 8.6 °F 40% 30.38 in 10.0 mi ENE 5.8 mph - N/A   Scattered Clouds
12:15 PM 30.2 °F 24.3 °F 10.4 °F 44% 30.38 in 10.0 mi ENE 5.8 mph - N/A   Mostly Cloudy
12:35 PM 30.2 °F 23.4 °F 10.4 °F 44% 30.36 in 10.0 mi NE 6.9 mph - N/A   Overcast
1:15 PM 32.0 °F 24.2 °F 10.4 °F 41% 30.34 in 10.0 mi NE 9.2 mph - N/A   Partly Cloudy
1:35 PM 32.0 °F 24.8 °F 12.2 °F 44% 30.34 in 10.0 mi NNE 8.1 mph - N/A   Clear
2:15 PM 32.0 °F 21.2 °F 10.4 °F 41% 30.28 in 10.0 mi NE 16.1 mph - N/A   Overcast
2:35 PM 33.8 °F 25.3 °F 12.2 °F 41% 30.29 in 10.0 mi NNE 11.5 mph 18.4 mph N/A   Mostly Cloudy
2:55 PM 33.8 °F 25.8 °F 12.2 °F 41% 30.29 in 10.0 mi ENE 10.4 mph - N/A   Clear
3:15 PM 33.8 °F 27.0 °F 12.2 °F 41% 30.29 in 10.0 mi NE 8.1 mph - N/A   Partly Cloudy
3:35 PM 33.8 °F 27.0 °F 12.2 °F 41% 30.28 in 10.0 mi ENE 8.1 mph - N/A   Partly Cloudy
4:15 PM 33.8 °F 27.0 °F 12.2 °F 41% 30.27 in 10.0 mi ENE 8.1 mph - N/A   Overcast
4:35 PM 33.8 °F 28.6 °F 12.2 °F 41% 30.26 in 10.0 mi East 5.8 mph - N/A   Overcast
4:55 PM 33.8 °F 28.6 °F 12.2 °F 41% 30.27 in 10.0 mi ENE 5.8 mph - N/A   Overcast
5:15 PM 33.8 °F 27.7 °F 12.2 °F 41% 30.26 in 10.0 mi NE 6.9 mph - N/A   Overcast
5:35 PM 33.8 °F 29.6 °F 12.2 °F 41% 30.27 in 10.0 mi ENE 4.6 mph - N/A   Overcast
5:55 PM 33.8 °F 30.8 °F 12.2 °F 41% 30.27 in 10.0 mi East 3.5 mph - N/A   Overcast
6:15 PM 33.8 °F - 12.2 °F 41% 30.28 in 10.0 mi Calm Calm - N/A   Overcast
6:35 PM 33.8 °F 29.6 °F 12.2 °F 41% 30.29 in 10.0 mi NE 4.6 mph - N/A   Overcast
6:55 PM 33.8 °F 30.8 °F 14.0 °F 44% 30.28 in 10.0 mi NE 3.5 mph - N/A   Scattered Clouds
7:15 PM 32.0 °F 24.8 °F 14.0 °F 48% 30.26 in 10.0 mi NE 8.1 mph - N/A   Scattered Clouds
7:35 PM 32.0 °F 25.6 °F 12.2 °F 44% 30.27 in 10.0 mi NNE 6.9 mph - N/A   Mostly Cloudy
7:55 PM 32.0 °F 25.6 °F 14.0 °F 48% 30.27 in 10.0 mi NE 6.9 mph - N/A   Overcast
8:15 PM 32.0 °F 24.8 °F 12.2 °F 44% 30.27 in 10.0 mi NE 8.1 mph - N/A   Overcast
8:35 PM 32.0 °F 24.2 °F 12.2 °F 44% 30.26 in 10.0 mi NE 9.2 mph - N/A   Overcast
8:55 PM 32.0 °F 24.2 °F 14.0 °F 48% 30.27 in 10.0 mi NE 9.2 mph - N/A   Overcast
9:15 PM 32.0 °F 24.8 °F 14.0 °F 48% 30.26 in 10.0 mi ENE 8.1 mph - N/A   Overcast
9:35 PM 32.0 °F 24.2 °F 12.2 °F 44% 30.26 in 10.0 mi ENE 9.2 mph - N/A   Overcast
9:55 PM 32.0 °F 23.0 °F 14.0 °F 48% 30.25 in 10.0 mi ENE 11.5 mph - N/A   Overcast
10:15 PM 32.0 °F 22.1 °F 12.2 °F 44% 30.24 in 10.0 mi ENE 13.8 mph - N/A   Overcast
10:35 PM 32.0 °F 24.2 °F 12.2 °F 44% 30.25 in 10.0 mi ENE 9.2 mph - N/A   Overcast
10:55 PM 32.0 °F 25.6 °F 12.2 °F 44% 30.26 in 10.0 mi ENE 6.9 mph - N/A   Overcast
11:15 PM 32.0 °F 23.6 °F 12.2 °F 44% 30.26 in 10.0 mi ENE 10.4 mph - N/A   Overcast
11:35 PM 30.2 °F 21.9 °F 14.0 °F 51% 30.26 in 10.0 mi ENE 9.2 mph - N/A   Overcast
11:55 PM 30.2 °F 20.8 °F 14.0 °F 51% 30.25 in 10.0 mi NE 11.5 mph - N/A   Overcast